{"data":{"norad_id":63671,"intl_designator":"2025-085H","name":"STARLINK-11603 [DTC]","alt_names":[],"object_type":"PAYLOAD","status":"ACTIVE","operator":null,"country":"US","launch_date":"2025-04-28","launch_site_code":"AFETR","launch_vehicle":null,"mission":null,"orbit_class":"UNKNOWN","rcs_meters":null,"size_class":null,"mass_kg":null,"dimensions":null,"purposes":["comms"],"wikipedia_slug":null,"has_3d_model":false,"image_url":null,"decayed_at":null,"tle_current":{"epoch":"2026-09-20T21:47:48.539616Z","epoch_age_seconds":117361,"freshness":"FRESH","line1":"1 63671U 25085H   26263.90820069  .00098232  00000+0  76074-3 0  9996","line2":"2 63671  43.0000 181.7915 0003369 292.8896  67.1616 15.70812682 80947","mean_motion":15.70812682,"eccentricity":0.0003369,"inclination_deg":43,"raan_deg":181.7915,"arg_perigee_deg":292.8896,"mean_anomaly_deg":67.1616,"bstar":0.00076074,"rev_number":8094,"period_min":91.672292724716,"perigee_km":354.30421880972,"apogee_km":358.84206650385,"semimajor_km":6734.7101426568,"source":"CELESTRAK","updated_at":"2026-09-21T09:00:35.058459Z"}}}